Creek Data

    Home     View Charts     View Raw Data     Messages

ID Distance Battery Voltage Battery Current Internal Temp Internal Humidity External Temp Solar Input rssi snr Time Stamp Record
34078 15.1 3.93 -5 48 39 49 0 -78 7 03/04/2025 11:00 PM 15797
34077 15.0 3.99 -5 48 39 49 0 -78 8 03/04/2025 10:45 PM 15796
34076 15.0 3.94 -5 49 39 50 0.1 -78 7 03/04/2025 10:30 PM 15795
34075 15.1 3.99 -5 49 39 50 0 -77 8 03/04/2025 10:15 PM 15794
34074 15.0 3.94 -5 49 39 51 0 -76 8 03/04/2025 10:00 PM 15793
34073 15.0 3.94 -5 49 39 50 0 -77 8 03/04/2025 09:45 PM 15792
34072 15.0 4.00 -5 49 39 51 0 -78 8 03/04/2025 09:30 PM 15791
34071 15.0 3.94 -5 49 39 51 0 -77 8 03/04/2025 09:15 PM 15790
34070 15.0 4.00 -5 50 39 52 0 -77 7 03/04/2025 09:00 PM 15789
34069 15.0 3.94 -5 50 39 51 0 -77 8 03/04/2025 08:45 PM 15788
34068 15.0 4.00 -5 50 39 52 0 -78 8 03/04/2025 08:30 PM 15787
34067 15.0 3.94 -5 50 39 52 0.1 -77 8 03/04/2025 08:15 PM 15786
34066 15.0 3.94 -5 50 40 52 0 -78 7 03/04/2025 08:00 PM 15785
34065 15.0 3.94 -5 50 40 52 0 -78 7 03/04/2025 07:45 PM 15784
34064 15.0 3.94 -5 51 40 52 0 -78 8 03/04/2025 07:30 PM 15783
34063 15.0 3.95 -5 51 41 53 0 -78 8 03/04/2025 07:15 PM 15782
34062 15.0 3.95 -5 52 41 53 0 -78 7 03/04/2025 07:00 PM 15781
34061 15.0 4.01 -5 52 42 53 0.1 -77 8 03/04/2025 06:45 PM 15780
34060 15.0 3.95 -5 53 43 53 0 -78 8 03/04/2025 06:30 PM 15779
34059 15.0 4.01 -5 54 43 55 0.6 -77 8 03/04/2025 06:15 PM 15778
34058 15.0 3.94 -10 56 44 55 3.2 -77 8 03/04/2025 06:00 PM 15777
34057 15.0 3.97 0 59 43 56 4.5 -77 8 03/04/2025 05:45 PM 15776
34056 15.0 4.05 31 63 41 58 4.5 -77 7 03/04/2025 05:30 PM 15775
34055 15.0 4.02 0 64 42 58 4.5 -77 8 03/04/2025 05:15 PM 15774
34054 15.1 4.00 5 68 39 60 5.1 -75 8 03/04/2025 05:00 PM 15773